Regional Weather Roundup
Issued by NWS

Home | Current Version | Previous Version | Text Only | Print | Product List | Glossary Off
Versions: 1 2 3 4 5 6 7 8 9 10 11 12 13 14 15 16 17 18 19 20 21 22 23 24 25 26 27 28 29 30 31 32 33 34 35 36 37 38 39 40 41 42 43 44 45 46 47 48 49 50

000
ASUS43 KMPX 291901
RWRMN
WEATHER ROUNDUP FOR MINNESOTA
NATIONAL WEATHER SERVICE TWIN CITIES/CHANHASSEN MN
200 PM CDT SUN MAY 29 2016


NOTE: "FAIR" INDICATES FEW OR NO CLOUDS BELOW 12,000 FEET WITH NO
SIGNIFICANT WEATHER AND/OR OBSTRUCTIONS TO VISIBILITY. N/A MEANS
CURRENT SKY AND/OR WEATHER CONDITIONS ARE NOT AVAILABLE.

MNZ060>063-068>070-292000-
   Twin Cities Metro

CITY           SKY/WX    TMP DP  RH WIND       PRES   REMARKS
TWIN CITIES    PTSUNNY   75  56  51 NW14      29.96S
ST PAUL        MOSUNNY   75  56  51 W16       29.96S
CRYSTAL        MOSUNNY   77  54  44 W18G24    29.95S
BLAINE         MOSUNNY   75  57  53 W14G21    29.96R
EDEN PRAIRIE   MOSUNNY   75  56  51 NW13      29.96S
SOUTH ST PAUL  SUNNY     75  55  50 W10G17    29.96S
LAKE ELMO      PTSUNNY   73  59  60 NW13      29.97S
$$
MNZ001>005-007-008-013>017-022>024-027-028-292000-
   Northwest Minnesota

CITY           SKY/WX    TMP DP  RH WIND       PRES   REMARKS
BEMIDJI        CLOUDY    61  53  75 NW15      29.95R
HALLOCK        CLOUDY    66  55  68 W12       29.92S
ROSEAU         MOSUNNY   66  57  72 W9G17     29.90S
WARROAD        MOSUNNY   64  57  77 NW12      29.89F
THIEF RVR FALL CLOUDY    64  55  72 W10       29.95S
CROOKSTON      MOSUNNY   68  57  68 NW5       29.95S
FOSSTON        PTSUNNY   66  55  68 W8        29.96S
DETROIT LAKES  PTSUNNY   66  55  68 NW5       29.98F
MOORHEAD       MOSUNNY   68  57  68 NW3       29.96S
PARK RAPIDS    MOSUNNY   69  53  56 W15G23    29.95S
MAHNOMEN       CLOUDY    66  57  73 W7        29.96F
$$
MNZ006-009>011-018-025>026-292000-
   North Central Minnesota

CITY           SKY/WX    TMP DP  RH WIND       PRES   REMARKS
BAUDETTE       CLOUDY    59  54  83 NW13      29.90R
FLAG ISLAND    CLOUDY    57  54  88 W12       29.87S
INTL FALLS     CLOUDY    62  54  74 W13G20    29.86R
WASKISH        CLOUDY    61  55  82 W15       29.92R
BIG FORK       LGT RAIN  63  55  77 NW5       29.90R
LONGVILLE      CLOUDY    66  55  68 W9G20     29.94R
GRAND RAPIDS   CLOUDY    63  55  75 SW13G20   29.93R
CRANE LAKE     CLOUDY    57  55  94 CALM      29.87R
ORR            CLOUDY    59  54  82 NW8       29.85R
COOK           CLOUDY    61  55  82 W14       29.88R
WALKER         CLOUDY    62  55  77 W12G17    29.94S
$$
MNZ012-019>021-037-292000-
   Northeast Minnesota

CITY           SKY/WX    TMP DP  RH WIND       PRES   REMARKS
DULUTH         CLOUDY    63  55  75 W20G28    29.88R
ELY            RAIN      57  55  94 W10G18    29.84R
HIBBING        CLOUDY    63  54  72 NW12G21   29.88R
EVELETH        CLOUDY    63  54  72 W13G22    29.88S
DULUTH HARBOR  CLOUDY    68  57  68 W17       29.87R
TWO HARBORS      N/A     70  59  68 W14G25    29.83R
SILVER BAY     PTSUNNY   68  57  68 W9G16     29.81R
GRAND MARAIS     N/A     44  42  93 SW7       29.77S
G MARAIS ARPRT LGT RAIN  61  55  82 CALM      29.80R
$$
MNZ029>031-032-039>041-046>048-054>057-064-292000-
   West Central Minnesota

CITY           SKY/WX    TMP DP  RH WIND       PRES   REMARKS
FERGUS FALLS   MOSUNNY   72  55  56 NW15G22   29.93F
WHEATON        SUNNY     79  54  41 W13G23    29.99S
MORRIS         MOSUNNY   75  55  50 NW21      29.96F
ALEXANDRIA     MOSUNNY   71  55  56 NW8       29.99S
ELBOW LAKE     PTSUNNY   67  60  78 NW5       29.99S
WADENA         SUNNY     70  54  56 W14G21    29.96S
GLENWOOD       MOSUNNY   72  57  60 W12       29.98F
APPLETON       PTSUNNY   75  52  43 NW10G16   29.97S
ORTONVILLE     MOSUNNY   75  52  43 W13G18    29.98F
MADISON        SUNNY     77  50  38 W17       29.99S
WILLMAR        FAIR      73  61  64 W8        30.00S
$$
MNZ033>034-036-042>043-049>051-058-059-292000-
   Central Minnesota

CITY           SKY/WX    TMP DP  RH WIND       PRES   REMARKS
ST CLOUD       PTSUNNY   74  57  55 NW15      29.96S
SAUK CENTRE    FAIR      70  57  63 W8        29.97F
PAYNESVILLE    MOSUNNY   74  55  50 NW12G21   29.98F
AITKIN         PTSUNNY   73  54  49 W6        29.92R
PINE RIVER     MOSUNNY   68  55  64 NW10G18   29.97S
BRAINERD       CLOUDY    67  55  65 W13       29.95S
STAPLES        MOSUNNY   72  55  56 W14       29.96R
LONG PRAIRIE   PTSUNNY   68  55  64 SW8       29.97F
LITTLE FALLS   MOSUNNY   70  54  56 NW10      29.96S
LITCHFIELD     MOSUNNY   73  61  64 NW12      29.99S
BUFFALO        CLOUDY    71  56  59 W8        29.98S
MAPLE LAKE     MOSUNNY   74  61  64 W10       29.98S
HUTCHINSON     SUNNY     75  61  63 W14       30.00S
$$
MNZ037-044-045-052-053-292000-
   East Central Minnesota

CITY           SKY/WX    TMP DP  RH WIND       PRES   REMARKS
PRINCETON      MOSUNNY   73  57  56 W10G20    29.96S
MORA           MOSUNNY   70  55  60 W13G21    29.96S
CAMBRIDGE      MOSUNNY   75  57  53 W14       29.93F
RUSH CITY      PTSUNNY   72  59  62 W7        29.95R
MOOSE LAKE     CLOUDY    68  54  60 W13G18    29.90R
HINCKLEY       MOCLDY    70  55  60 W13G25    29.93S
CLOQUET        CLOUDY    66  54  63 W12G25    29.89R
MCGREGOR       CLOUDY    68  54  60 NW12      29.92S
$$
MNZ071>073-080-081-089-090-097-098-292000-
   Southwest Minnesota

CITY           SKY/WX    TMP DP  RH WIND       PRES   REMARKS
MONTEVIDEO     MOSUNNY   77  57  50 NW7       30.00S
GRANITE FALLS  PTSUNNY   76  58  54 W8        30.00F
CANBY          MOSUNNY   77  56  47 NW10G25   30.02S
MARSHALL       PTSUNNY   76  56  49 NW16      30.01S
REDWOOD FALLS  MOSUNNY   77  57  50 W13       29.99S
OLIVIA         MOSUNNY   64  52  63 W8        29.99S
PIPESTONE      SUNNY     73  46  38 NW10G21   30.05S
WINDOM         MOSUNNY   77  54  44 W3G21     30.02F
JACKSON        MOSUNNY   77  54  44 W16G24    30.04S
TRACY          MOSUNNY   75  56  52 W14       30.02S
SLAYTON        MOSUNNY   73  54  51 W14G21    30.05S
$$
MNZ065>067-074>077-082>085-091>093-292000-
   South Central Minnesota

CITY           SKY/WX    TMP DP  RH WIND       PRES   REMARKS
MANKATO        MOSUNNY   75  59  57 W16       30.00S
NEW ULM        PTSUNNY   73  57  56 NW12      30.00S
ST JAMES       MOSUNNY   70  54  56 W16       30.01F
FAIRMONT       MOSUNNY   75  54  46 W17G24    30.02S
GLENCOE        MOSUNNY   74  63  67 W13G20    29.98S
FARIBAULT      MOSUNNY   75  61  60 W12       29.99S
OWATONNA       MOSUNNY   73  57  56 W14       30.00S
WASECA         PTSUNNY   72  59  64 W12       30.01S
ALBERT LEA     MOSUNNY   75  61  60 W8        30.01S
$$
MNZ078>079-086>088-094>096-292000-
   Southeast Minnesota

CITY           SKY/WX    TMP DP  RH WIND       PRES   REMARKS
ROCHESTER      PTSUNNY   75  62  64 W18       30.00S
RED WING       MOSUNNY   77  57  50 NW16      29.95S
STANTON        MOSUNNY   74  58  57 W13       29.97S
DODGE CENTER   SUNNY     75  57  53 W14G21    30.00S
WINONA         MOSUNNY   77  55  47 NW12G17   29.96S
AUSTIN         MOSUNNY   75  59  57 W15G21    30.00F
PRESTON        MOSUNNY   74  59  58 W16G24    30.01S
$$
ABBREVIATIONS USED IN REMARKS
   TC - TEMPERATURES IN CELSIUS
  WCI - WIND CHILL INDEX
   HX - HEAT INDEX
  VSB - VISIBILITY
$$




USA.gov is the U.S. government's official web portal to all federal, state and local government web resources and services.